Location: Chavannes
(47.1090°N, 0.2226°W)
Time: 14:50:39
(UTC+00:00)

Cosmos 1626 Rocket - Pass Details

Date: 16 October 2021
Orbit: 603 x 630 km, 82.5° (Epoch: 05 December)

Event Time Altitude Azimuth Distance (km) Brightness Sun altitude
Rises 19:21:24 0° 350° (N) 2,878 7.3 -22.8°
Reaches altitude 10° 19:23:38 10° 350° (N) 1,966 6.4 -23.2°
Maximum altitude 19:27:59 86° 263° (W) 613 3.4 -23.9°
Enters shadow 19:28:14 79° 196° (SSW) 622 3.4 -23.9°
